Volver al catálogo

ONEWEB-0706

ActivoComunicacionesPO
NORAD 61611·PAYLOAD·🇬🇧 United Kingdom

Lanzado Oct 20, 2024 desde Vandenberg Space Force Base

Loading…

Próximos Pases (próximas 24 horas)

TLE

ActualizadoSource: CelesTrak SupGP

Época: Sep 14, 2026, 15:35 UTC

1 61611C 24188T   26257.64979583  .00002105  00000+0  60379-2 0  2572
2 61611  87.8920  18.4550 0001148 102.8656   7.0942 13.10375037    19

Sigue ONEWEB-0706 en tiempo real con AllMySat

Download on the App Store